Location: Delta State University
(33.7460°N, 90.7320°W)
Time: 01:27:50
(UTC-05:00)

Iridium 13 - Visible Passes

Search period start: 27 May 2016 00:00
Search period end: 06 June 2016 00:00
Orbit: 776 x 779 km, 86.4° (Epoch: 26 May)

Date Brightness Start Highest point End Pass type
(mag) Time Alt. Az. Time Alt. Az. Time Alt. Az.
28 May 8.6 05:09:08 10° NE 05:11:40 14° ENE 05:14:12 10° ESE visible
31 May 8.3 05:08:07 10° NNE 05:11:57 20° E 05:15:45 10° SE visible
03 Jun 7.6 05:07:36 10° NNE 05:12:10 30° E 05:16:43 10° SE visible
04 Jun 8.3 04:35:19 10° NE 04:38:25 16° ENE 04:41:30 10° ESE visible
